User: anonymous   Login
Location: Kitchener
(43.2612°N, 80.5078°W)
Time: 16:51:58
(UTC+01:00)
Language:

Iridium 57 - Orbit

View from above orbital plane
View from above orbital plane
View from above satellite
View from above satellite

Ground track
Ground track

The orbit data is extracted from the following two-line orbital elements,

1 25273U 98019B   14352.42847203  .00000670  00000-0  23199-3 0   194
2 25273 086.3974 308.3945 0002246 102.6349 257.5098 14.34223074875386
Epoch (UTC): 18 December 2014 10:16:59
Eccentricity: 0.0002246
inclination: 86.3974°
perigee height: 776 km
apogee height: 779 km
right ascension of ascending node: 308.3945°
argument of perigee: 102.6349°
revolutions per day: 14.34223074
mean anomaly at epoch: 257.5098°
orbit number at epoch: 87538

The dashed part of the orbit path shows where the satellite is in the earth's shadow,  

DLR